Time,TemperatureF,DewpointF,PressureIn,WindDirection,WindDirectionDegrees,WindSpeedMPH,WindSpeedGustMPH,Humidity,HourlyPrecipIn,Conditions,Clouds,dailyrainin,SoftwareType,DateUTC
2013-08-03 00:00:00,48.0,38.0,-100.00,SSW,200,14.0,18.0,67,-99.99,,,-99.99,,2013-08-03 06:00:00,
2013-08-03 00:42:00,48.0,38.0,-100.00,SSW,200,14.0,18.0,67,-99.99,,,-99.99,,2013-08-03 06:42:00,
2013-08-03 00:52:00,48.0,38.0,-100.00,SSW,200,14.0,18.0,67,-99.99,,,-99.99,,2013-08-03 06:52:00,
2013-08-03 02:00:00,49.0,38.0,-100.00,South,189,11.0,14.0,65,-99.99,,,-99.99,,2013-08-03 08:00:00,
2013-08-03 02:43:00,49.0,38.0,-100.00,South,189,11.0,14.0,65,-99.99,,,-99.99,,2013-08-03 08:43:00,
2013-08-03 02:52:00,49.0,38.0,-100.00,South,189,11.0,14.0,65,-99.99,,,-99.99,,2013-08-03 08:52:00,
2013-08-03 04:00:00,47.0,38.0,-100.00,South,185,6.0,14.0,70,-99.99,,,-99.99,,2013-08-03 10:00:00,
2013-08-03 04:43:00,47.0,38.0,-100.00,South,185,6.0,14.0,70,-99.99,,,-99.99,,2013-08-03 10:43:00,
2013-08-03 04:53:00,47.0,38.0,-100.00,South,185,6.0,14.0,70,-99.99,,,-99.99,,2013-08-03 10:53:00,
2013-08-03 06:00:00,47.0,38.0,-100.00,SW,226,6.0,11.0,70,-99.99,,,-99.99,,2013-08-03 12:00:00,
2013-08-03 06:43:00,47.0,38.0,-100.00,SW,226,6.0,11.0,70,-99.99,,,-99.99,,2013-08-03 12:43:00,
2013-08-03 06:53:00,47.0,38.0,-100.00,SW,226,6.0,11.0,70,-99.99,,,-99.99,,2013-08-03 12:53:00,
2013-08-03 08:00:00,48.0,37.0,-100.00,WSW,258,6.0,11.0,63,-99.99,,,-99.99,,2013-08-03 14:00:00,
2013-08-03 08:42:00,48.0,37.0,-100.00,WSW,258,6.0,11.0,63,-99.99,,,-99.99,,2013-08-03 14:42:00,
2013-08-03 08:52:00,48.0,37.0,-100.00,WSW,258,6.0,11.0,63,-99.99,,,-99.99,,2013-08-03 14:52:00,
2013-08-03 12:00:00,55.0,35.0,-100.00,SW,227,4.0,8.0,47,-99.99,,,-99.99,,2013-08-03 18:00:00,
2013-08-03 12:43:00,55.0,35.0,-100.00,SW,227,4.0,8.0,47,-99.99,,,-99.99,,2013-08-03 18:43:00,
2013-08-03 12:53:00,55.0,35.0,-100.00,SW,227,4.0,8.0,47,-99.99,,,-99.99,,2013-08-03 18:53:00,
2013-08-03 13:00:00,57.0,33.0,-100.00,NW,309,3.0,10.0,41,-99.99,,,-99.99,,2013-08-03 19:00:00,
2013-08-03 13:43:00,57.0,33.0,-100.00,NW,309,3.0,10.0,41,-99.99,,,-99.99,,2013-08-03 19:43:00,
2013-08-03 13:53:00,57.0,33.0,-100.00,NW,309,3.0,10.0,41,-99.99,,,-99.99,,2013-08-03 19:53:00,
2013-08-03 15:00:00,52.0,41.0,-100.00,NE,51,13.0,24.0,65,-99.99,,,-99.99,,2013-08-03 21:00:00,
2013-08-03 15:42:00,52.0,41.0,-100.00,NE,51,13.0,24.0,65,-99.99,,,-99.99,,2013-08-03 21:42:00,
2013-08-03 15:52:00,52.0,41.0,-100.00,NE,51,13.0,24.0,65,-99.99,,,-99.99,,2013-08-03 21:52:00,
2013-08-03 17:00:00,51.0,41.0,-100.00,NNW,341,11.0,23.0,68,-99.99,,,-99.99,,2013-08-03 23:00:00,
2013-08-03 17:43:00,51.0,41.0,-100.00,NNW,341,11.0,23.0,68,-99.99,,,-99.99,,2013-08-03 23:43:00,
2013-08-03 17:52:00,51.0,41.0,-100.00,NNW,341,11.0,23.0,68,-99.99,,,-99.99,,2013-08-03 23:52:00,
2013-08-03 19:00:00,47.0,40.0,-100.00,NW,321,10.0,20.0,75,-99.99,,,-99.99,,2013-08-04 01:00:00,
2013-08-03 19:42:00,47.0,40.0,-100.00,NW,321,10.0,20.0,75,-99.99,,,-99.99,,2013-08-04 01:42:00,
2013-08-03 19:53:00,47.0,40.0,-100.00,NW,321,10.0,20.0,75,-99.99,,,-99.99,,2013-08-04 01:53:00,
2013-08-03 22:00:00,44.0,44.0,-100.00,NNE,23,6.0,13.0,99,-99.99,,,-99.99,,2013-08-04 04:00:00,
2013-08-03 22:42:00,44.0,44.0,-100.00,NNE,23,6.0,13.0,99,-99.99,,,-99.99,,2013-08-04 04:42:00,
2013-08-03 22:52:00,44.0,44.0,-100.00,NNE,23,6.0,13.0,99,-99.99,,,-99.99,,2013-08-04 04:52:00,
2013-08-03 23:00:00,43.0,43.0,-100.00,NE,42,5.0,9.0,100,-99.99,,,-99.99,,2013-08-04 05:00:00,
2013-08-03 23:42:00,43.0,43.0,-100.00,NE,42,5.0,9.0,100,-99.99,,,-99.99,,2013-08-04 05:42:00,
2013-08-03 23:52:00,43.0,43.0,-100.00,NE,42,5.0,9.0,100,-99.99,,,-99.99,,2013-08-04 05:52:00,